sat.trackr.live / text

‹ back to catalog

STARLINK-32257

NORAD 62171 · 2024-225J

PAYLOAD ACTIVE UNKNOWN

§ Identity

Operator
Country
US
Launch date
2024-11-30
Launch site
AFWTR
Launch vehicle
Mass (kg)
RCS (m²)

Purposes: comms

External: N2YO · Heavens-Above · Gunter

§ Orbital elements

Epoch: 2026-05-24T23:06:36.718272Z

Period
96.11 min
Inclination
70.0017°
Eccentricity
0.0002602
Mean motion
14.98337636 rev/d
Perigee alt
570.2 km
Apogee alt
573.8 km
Semi-major
6,950.2 km
B*
2.4313e-4
RAAN
332.0004°
Arg perigee
262.7245°
Mean anomaly
97.3619°
Rev number
8,130

§ Raw data

STARLINK-322571 62171U 24225J   26144.96292498  .00002810  00000+0  24313-3 0  99942 62171  70.0017 332.0004 0002602 262.7245  97.3619 14.98337636 81301

JSON: /api/v1/satellites/62171 · /tle

For live sub-satellite position, see the globe view (requires WebGL).

§ Visibility from observer

Set your observer location to see the next 7 days of passes ≥ 10°. The values pass through the URL so the page stays shareable.

No JS? Fill the form by hand. The geolocation button needs JavaScript.